This is the latest recevied weather packets stored in our database for station/object SM6LNJ-13. If no packets are shown the sender has not sent any weather packets the latest 1 day(s).
| Time | Temp. | Humidity | Pressure | Rain* | Wind** | Luminosity | Snow |
|---|---|---|---|---|---|---|---|
| 1778001350 | 13.89° C | 41% | 1427.7 hPa | 0 mm | 1.34 m/s, 200° | - | - |
| 1778001230 | 13.89° C | 41% | 1428 hPa | 0 mm | 0.89 m/s, 174° | - | - |
| 1778001111 | 13.89° C | 41% | 1428.1 hPa | 0 mm | 0.89 m/s, 189° | - | - |
| 1778000990 | 13.89° C | 42% | 1428.5 hPa | 0 mm | 0.45 m/s, 162° | - | - |
| 1778000870 | 13.89° C | 41% | 1427.7 hPa | 0 mm | 0.89 m/s, 187° | - | - |
| 1778000750 | 13.89° C | 40% | 1428.5 hPa | 0 mm | 1.34 m/s, 198° | - | - |
| 1778000630 | 14.44° C | 39% | 1430.2 hPa | 0 mm | 0.89 m/s, 171° | - | - |
| 1778000510 | 15° C | 39% | 1430.6 hPa | 0 mm | 0.45 m/s, 165° | - | - |
| 1778000390 | 14.44° C | 39% | 1430.1 hPa | 0 mm | 0.45 m/s, 172° | - | - |
| 1778000270 | 14.44° C | 40% | 1430.3 hPa | 0 mm | 0.45 m/s, 184° | - | - |
| 1778000150 | 14.44° C | 41% | 1430.1 hPa | 0 mm | 0.45 m/s, 184° | - | - |
| 1778000030 | 14.44° C | 40% | 1429.8 hPa | 0 mm | 0.45 m/s, 188° | - | - |
| 1777999910 | 14.44° C | 40% | 1429.9 hPa | 0 mm | 0.45 m/s, 187° | - | - |
| 1777999790 | 14.44° C | 40% | 1430.3 hPa | 0 mm | 0.45 m/s, 179° | - | - |
| 1777999670 | 15° C | 40% | 1430.7 hPa | 0 mm | 0.45 m/s, 196° | - | - |
| 1777999550 | 15° C | 39% | 1430.9 hPa | 0 mm | 0.45 m/s, 143° | - | - |
| 1777999430 | 15° C | 40% | 1431.3 hPa | 0 mm | 0.45 m/s, 195° | - | - |
| 1777999310 | 15° C | 40% | 1431.6 hPa | 0 mm | 0.45 m/s, 186° | - | - |
| 1777999190 | 15° C | 40% | 1431.5 hPa | 0 mm | 0.45 m/s, 175° | - | - |
| 1777999070 | 15° C | 40% | 1431.3 hPa | 0 mm | 0.45 m/s, 176° | - | - |
| 1777998950 | 15° C | 40% | 1430.7 hPa | 0 mm | 0.45 m/s, 195° | - | - |
| 1777998830 | 14.44° C | 41% | 1430.1 hPa | 0 mm | 0.45 m/s, 181° | - | - |
| 1777998710 | 14.44° C | 41% | 1429.8 hPa | 0 mm | 0.45 m/s, 225° | - | - |
| 1777998590 | 14.44° C | 41% | 1429.4 hPa | 0 mm | 0.45 m/s, 213° | - | - |
| 1777998470 | 14.44° C | 41% | 1429.3 hPa | 0 mm | 0.45 m/s, 191° | - | - |
* Rain latest hour (hover to see other rain measurements)
** Current wind speed in m/s (hover to see current wind gust speed)